Location: Unspecified
(0.0000°N, 0.0000°E)
Time: 22:48:16
(UTC+00:00)

Vanguard 2 - Pass Details

Date: 03 October 2020
Orbit: 554 x 2937 km, 32.9° (Epoch: 27 October)

Event Time Altitude Azimuth Distance (km) Brightness Sun altitude
Rises 12:25:28 0° 291° (WNW) 2,879 10.6 79.9°
Reaches altitude 10° 12:27:31 10° 285° (WNW) 2,101 10.1 79.5°
Maximum altitude 12:32:06 47° 210° (SSW) 1,115 9.5 78.4°
Drops below altitude 10° 12:39:07 10° 138° (SE) 3,196 10.8 76.7°
Sets 12:42:56 0° 133° (SE) 4,576 11.4 75.8°
